Starlink 1202

operational
NORAD ID: 45183 Int'l Des: 2020-012 Owner: SPXS Country: US Constellation: starlink
LEOCIRCULARSTARLINK_TYPE

About Starlink 1202

Description loading...

Live Position

Loading 3D Globe...

Upcoming Passes

Altitude History

Altitude vs Time

uPlot chart will show altitude changes over time

Two-Line Element Set

1 45183U 20012F 26033.87371570 .00001701 00000-0 71241-4 0 9996
2 45183 53.1573 200.9456 0001047 227.5268 132.5644 15.29364111329627
Epoch: Feb 2, 2026 • Age: 39 hours

Current Status

Altitude 479.4 km
Velocity 7.63 km/s
Sub-Earth Point -2.84°S, 125.88°W
Launch Date Feb 17, 2020
Age 5.9 years
Type internet

Technical Details

Classification Payload
Mass 260.00 kg
Dry Mass 248.00 kg
Total Mass 260.00 kg
Length 0.20 m
Diameter 2.80 m
Span 9.00 m
Shape Box + pan
Manufacturer SPXS
Bus Type Starlink
Phase Status In Orbit
Owner/State SPXS/US

Large Constellations

Loading constellations...